This is the latest recevied weather packets stored in our database for station/object N3SBK. If no packets are shown the sender has not sent any weather packets the latest 10 day(s).
| Time | Temp. | Humidity | Pressure | Rain* | Wind** | Luminosity | Snow |
|---|---|---|---|---|---|---|---|
| 1787613078 | 18.89° C | 64% | 1009.3 hPa | 0 mm | - | 19 W/m² | - |
| 1787612775 | 19.44° C | 63% | 1009.1 hPa | 0 mm | - | 22 W/m² | - |
| 1787612471 | 19.44° C | 64% | 1009.1 hPa | 0 mm | - | 28 W/m² | - |
| 1787612166 | 19.44° C | 63% | 1009 hPa | 0 mm | - | 26 W/m² | - |
| 1787611862 | 19.44° C | 63% | 1008.9 hPa | 0 mm | - | 27 W/m² | - |
| 1787611558 | 19.44° C | 64% | 1009.1 hPa | 0 mm | - | 29 W/m² | - |
| 1787611254 | 19.44° C | 64% | 1009.1 hPa | 0 mm | - | 28 W/m² | - |
| 1787610949 | 19.44° C | 64% | 1008.9 hPa | 0 mm | - | 35 W/m² | - |
| 1787610645 | 19.44° C | 64% | 1008.7 hPa | 0 mm | - | 35 W/m² | - |
| 1787610340 | 19.44° C | 64% | 1008.8 hPa | 0 mm | - | 49 W/m² | - |
| 1787610038 | 20° C | 64% | 1008.7 hPa | 0 mm | - | 52 W/m² | - |
| 1787609734 | 20° C | 61% | 1008.8 hPa | 0 mm | - | 59 W/m² | - |
| 1787609433 | 20° C | 61% | 1008.6 hPa | 0 mm | - | 100 W/m² | - |
| 1787609133 | 20° C | 63% | 1008.6 hPa | 0 mm | - | 73 W/m² | - |
| 1787608829 | 20.56° C | 62% | 1008.5 hPa | 0 mm | - | 75 W/m² | - |
| 1787608527 | 20.56° C | 60% | 1008.6 hPa | 0 mm | - | 73 W/m² | - |
| 1787608224 | 20.56° C | 62% | 1008.5 hPa | 0 mm | - | 88 W/m² | - |
| 1787607921 | 20.56° C | 61% | 1008.4 hPa | 0 mm | - | 104 W/m² | - |
| 1787607617 | 20.56° C | 59% | 1008.5 hPa | 0 mm | - | 115 W/m² | - |
| 1787607313 | 21.11° C | 57% | 1008.4 hPa | 0 mm | - | 71 W/m² | - |
| 1787607011 | 21.11° C | 59% | 1008.4 hPa | 0 mm | - | 234 W/m² | - |
| 1787606709 | 20.56° C | 61% | 1008.1 hPa | 0 mm | - | 262 W/m² | - |
| 1787606403 | 20.56° C | 59% | 1008.3 hPa | 0 mm | - | 90 W/m² | - |
| 1787606103 | 20° C | 59% | 1008.2 hPa | 0 mm | - | 86 W/m² | - |
| 1787605802 | 20° C | 61% | 1008.3 hPa | 0 mm | - | 131 W/m² | - |
* Rain latest hour (hover to see other rain measurements)
** Current wind speed in m/s (hover to see current wind gust speed)